DECAYED
Showing default

FLOCK 4Y 11, 55043 (Decayed)

Orbit data source: Space-Track

FLOCK 4Y 11, 55043 was a payload satellite owned by Planet (US) in LEO that was launched on Tue, 03 Jan 2023 UTC via an FALCON 9 launch vehicle from the Air Force Eastern Test Range (AFETR). Payload-class satellites include a variety of spacecraft equipped with specific instruments for various scientific and technological missions. These include communications satellites like Starlink; space stations such as the ISS; scientific satellites like the Hubble; Earth observation satellites from companies like Planet Labs, Umbra, and HawkEye 360; GPS; miniature CubeSats for education and research; and military/defense satellites.

Not visible in the next 10 days
Identifier
55043, 2023-001AL
Orbit
Decayed
Country
Flag of USUS
Related business
Manufacturer
Planet
Mission
Decayed Commercial Imaging
Bus & Motor
CUBESAT 3U, Unknown motor
Mass
5.7 kg wet, 5.7 kg dry
Launch date (UTC)
2023-01-03 (3 years ago)
Launch vehicle
FALCON 9
Launch site
Air Force Eastern Test Range (AFETR)
Object type
Payload
Rocket body
Debris
Shape & HBR
Box + 2 Pan, 1.0 m
Radar Cross Section
0.108 m², Medium (>0.1 m² and < 1m²)

Expand to show TLE details & history
Last TLE update: 2 months ago

TLE from 2 months ago
0 FLOCK 4Y 11
1 55043U 23001AL  25292.10349509  .16651067  25226-5  84343-3 0  9993
2 55043  97.3386   9.2205 0013161 264.1698  95.8102 16.41450342156288
Epoch: 2025-10-19T02:29Z
TLE epoch observation values (Epoch: 2025-10-19T02:29:01.975Z)
Latitude
-0.00005°
Longitude
-55.86268°
Altitude
166.085 km
Speed
7.806 km/s
True Right ascension
00h 36m 52s
True Declination
0° 00' 00"
Sunlit
Object was in full shadow at epoch
Visualization orbit readout
Latitude
Unknown
Longitude
Unknown
Altitude
Unknown
Speed
Unknown
Apparent Right ascension
Unknown
Apparent Declination
Unknown
Sunlit
N/A
Visualization observer readout
Local Sidereal Time
10:44:24
Azimuth
Unknown
Elevation
Unknown
Doppler factor
Unknown
Orbital elements
Apogee altitude
167.353 km
Perigee altitude
150.147 km
Semi-major axis
6,536.887 km
Eccentricity
0.00132
Inclination
97.3386°
RAAN
9.2205°
Arg. of periapsis
264.1698°
True anomaly
95.96021°
Mean anomaly
95.8102°
Eccentric anomaly
95.88521°
Mean motion
4.10664 °/min
Orbital period
87.66 mins
BSTAR
0.00084343
Loading maneuver chart data...
Computing Atmospheric mass density...

Documentation

Showing up to 5 results
|